Weather History for Pensacola NAS, FL

Change the Weather History Date:

Wednesday, March 20, 2013

  Actual Average Record
Temperature  
Mean Temperature 52 °F -  
Max Temperature 66 °F 67 °F 79 °F (2009)
Min Temperature 39 °F 50 °F 39 °F (2013)
Degree Days  
Heating Degree Days 12    
Growing Degree Days 2 (Base 50)    
Moisture  
Dew Point 34 °F    
Average Humidity 44    
Maximum Humidity 86    
Minimum Humidity 28    
Precipitation  
Precipitation 0.00 in - - ()
Sea Level Pressure  
Sea Level Pressure 30.02 in    
Wind  
Wind Speed 9 mph (North)    
Max Wind Speed 15 mph    
Max Gust Speed 22 mph    
Visibility 10 miles    
Events Rain    
Averages and records for this station are not official NWS values.
T = Trace of Precipitation, MM = Missing Value Source: NWS Daily Summary

Daily Weather History Graph

Daily Weather History Graph

Search for Another Location

Airport:

Trip Planner

Search our weather history database for the weather conditions in past years. The results will help you decide how hot, cold, wet, or windy it might be!

Date:

Astronomy

Mar. 20, 2013 Rise Set
Actual Time 6:52 AM CDT 7:00 PM CDT
Civil Twilight 6:28 AM CDT 7:24 PM CDT
Nautical Twilight 6:00 AM CDT 7:52 PM CDT
Astronomical Twilight 5:32 AM CDT 8:21 PM CDT
Moon 12:57 PM CDT (3/20) 2:09 AM CDT (3/20)
Length of Visible Light 12h 56m
Length of Day
12h 08m
First Quarter, 59% of the Moon is Illuminated
Mar 20
First Quarter
Mar 27
Full
Apr 2
Last Quarter
Apr 10
New
Apr 18
First Quarter

Hourly Weather History & Observations

Time (CDT) Temp. Dew Point Humidity Pressure Visibility Wind Dir Wind Speed Gust Speed Precip Events Conditions
12:56 AM 61.0 °F 39.9 °F 46% 29.98 in 10.0 mi NE 9.2 mph - N/A   Clear
1:56 AM 61.0 °F 37.0 °F 41% 29.98 in 10.0 mi NNE 9.2 mph 17.3 mph N/A   Clear
2:56 AM 61.0 °F 34.0 °F 36% 29.97 in 10.0 mi NNE 11.5 mph - N/A   Clear
3:56 AM 61.0 °F 33.1 °F 35% 29.96 in 10.0 mi NNE 12.7 mph - N/A   Overcast
4:56 AM 60.1 °F 33.1 °F 36% 29.97 in 10.0 mi NE 9.2 mph - N/A   Scattered Clouds
5:56 AM 59.0 °F 34.0 °F 39% 30.02 in 10.0 mi NNE 11.5 mph - N/A   Overcast
5:58 AM 59.0 °F 33.8 °F 39% 30.02 in 10.0 mi NNE 10.4 mph - N/A   Overcast
6:56 AM 57.0 °F 34.0 °F 42% 30.05 in 10.0 mi NNE 11.5 mph - N/A   Overcast
7:56 AM 55.9 °F 34.0 °F 44% 30.08 in 10.0 mi North 10.4 mph - N/A   Overcast
8:56 AM 57.9 °F 34.0 °F 41% 30.08 in 10.0 mi NNE 11.5 mph - N/A   Overcast
9:56 AM 60.1 °F 30.9 °F 33% 30.08 in 10.0 mi NNE 15.0 mph 21.9 mph N/A   Mostly Cloudy
10:56 AM 62.1 °F 30.0 °F 30% 30.08 in 10.0 mi NE 9.2 mph - N/A   Mostly Cloudy
11:56 AM 64.0 °F 30.9 °F 29% 30.06 in 9.0 mi NNE 12.7 mph - N/A   Overcast
12:35 PM 60.8 °F 35.6 °F 39% 30.07 in 10.0 mi NNW 6.9 mph - 0.00 in Rain Light Rain
12:56 PM 57.9 °F 44.1 °F 60% 30.06 in 10.0 mi Calm Calm - 0.00 in Rain Light Rain
1:56 PM 60.1 °F 37.0 °F 42% 30.05 in 10.0 mi NNW 6.9 mph - 0.00 in   Mostly Cloudy
2:56 PM 63.0 °F 36.0 °F 37% 30.02 in 10.0 mi NNW 10.4 mph 16.1 mph N/A   Mostly Cloudy
3:56 PM 64.9 °F 35.1 °F 33% 30.01 in 10.0 mi North 8.1 mph - N/A   Scattered Clouds
4:56 PM 66.0 °F 35.1 °F 32% 29.99 in 10.0 mi NNW 8.1 mph - N/A   Partly Cloudy
5:56 PM 64.0 °F 30.0 °F 28% 29.99 in 10.0 mi NNW 10.4 mph 19.6 mph N/A   Partly Cloudy
6:56 PM 59.0 °F 30.0 °F 33% 29.99 in 10.0 mi North 6.9 mph - N/A   Clear
7:56 PM 54.0 °F 32.0 °F 43% 30.01 in 10.0 mi NNW 3.5 mph - N/A   Clear
8:56 PM 48.0 °F 34.0 °F 58% 30.03 in 10.0 mi NNW 3.5 mph - N/A   Clear
9:56 PM 42.1 °F 36.0 °F 79% 30.03 in 10.0 mi Calm Calm - N/A   Clear
10:56 PM 39.9 °F 35.1 °F 83% 30.03 in 10.0 mi Calm Calm - N/A   Clear
11:56 PM 39.0 °F 35.1 °F 86% 30.03 in 10.0 mi Calm Calm - N/A   Clear